Simultaneous Nadir Overpasses (SNOs) Predictions

Prediction of SNOs between GOES-15 and METOP-C Satellite Orbit:

Table of predicted SNOs for the next 14.0 days since TLE Epoch: 11/7/2025
Index Date Time (GOES-15) GOES-15 Lat,Lon METOP-C Lat,Lon Distance(km) Time Diff (sec)
1 11/08/2025 05:23:53 0.68, 61.65 0.69, 61.66 1.01 80
2 11/10/2025 17:24:54 -0.68, 61.82 -0.63, 62.06 27.14 80
3 11/12/2025 05:41:06 0.66, 61.74 1.58, 57.49 483.91 80
4 11/13/2025 05:23:05 0.68, 61.75 0.53, 62.49 83.90 80
5 11/14/2025 17:39:26 -0.65, 61.89 -1.57, 57.90 455.48 80
6 11/15/2025 17:21:26 -0.67, 61.91 -0.45, 62.89 111.63 80
7 11/17/2025 05:37:38 0.64, 61.84 1.45, 58.33 400.51 80
8 11/18/2025 05:19:38 0.66, 61.86 0.32, 63.32 167.13 80
9 11/19/2025 17:35:58 -0.63, 62.00 -1.34, 58.73 372.27 80
10 11/20/2025 17:17:58 -0.66, 62.03 -0.27, 63.73 194.35 80
